Regional Weather Roundup
Issued by NWS

Home | Current Version | Previous Version | Graphics & Text | Print | Product List | Glossary On
Versions: 1 2 3 4 5 6 7 8 9 10 11 12 13 14 15 16 17 18 19 20 21 22 23 24 25 26 27 28 29 30 31 32 33 34 35 36 37 38 39 40 41 42 43 44 45 46 47 48 49 50
000
ASUS43 KMPX 050010
RWRMN
WEATHER ROUNDUP FOR MINNESOTA
NATIONAL WEATHER SERVICE TWIN CITIES/CHANHASSEN MN
600 PM CST WED MAR 04 2015


NOTE: "FAIR" INDICATES FEW OR NO CLOUDS BELOW 12,000 FEET WITH NO
SIGNIFICANT WEATHER AND/OR OBSTRUCTIONS TO VISIBILITY. N/A MEANS
CURRENT SKY AND/OR WEATHER CONDITIONS ARE NOT AVAILABLE.

MNZ060>063-068>070-050100-
   Twin Cities Metro

CITY           SKY/WX    TMP DP  RH WIND       PRES   REMARKS
TWIN CITIES    PTCLDY     5  -8  55 NW13      30.30R WCI -12
6HR MIN TEMP:   5; 6HR MAX TEMP:  12;

ST PAUL        PTCLDY     6  -7  54 NW17      30.31R WCI -13
CRYSTAL        MOCLDY     6  -9  50 NW12      30.30R WCI  -9
BLAINE         PTCLDY     7  -6  56 W17G23    30.28R WCI -12
LAKEVILLE      CLEAR      3  -8  60 NW14G20   30.28R WCI -15
EDEN PRAIRIE   PTCLDY     5  -9  52 NW16      30.29R WCI -14
6HR MIN TEMP:   5; 6HR MAX TEMP:  12;

SOUTH ST PAUL  CLEAR      7  -9  48 NW10G18   30.30R WCI  -8
LAKE ELMO      MOCLDY     9  -8  47 NW7       30.28R WCI  -3
$$
MNZ001>005-007-008-013>017-022>024-027-028-050100-
   Northwest Minnesota

CITY           SKY/WX    TMP DP  RH WIND       PRES   REMARKS
BEMIDJI        PTCLDY    -5 -14  64 NW13      30.27R WCI -24
HALLOCK        CLEAR      0  -9  65 NW10      30.34R WCI -17
ROSEAU         CLEAR     -2 -11  65 W10G16    30.29R WCI -19
WARROAD        CLEAR      0 -11  60 W7        30.27R WCI -13
THIEF RVR FALL CLEAR     -2 -17  50 NW10      30.32R WCI -19
CROOKSTON      CLEAR      0  -6  78 N10       30.37R WCI -17
FOSSTON        PTCLDY    -6 -13  71 NW10      30.31R WCI -23
DETROIT LAKES  MOCLDY     1  -8  66 NW16      30.30R WCI -18
MOORHEAD       PTCLDY     3  -6  66 NW14      30.37R WCI -15
PARK RAPIDS    PTCLDY    -2 -13  59 NW13      30.25R WCI -20
MAHNOMEN       MOCLDY    -2  -8  76 NW10      30.31S HAZE    WCI -19
$$
MNZ006-009>011-018-025>026-050100-
   North Central Minnesota

CITY           SKY/WX    TMP DP  RH WIND       PRES   REMARKS
BAUDETTE       CLEAR     -1 -12  59 W10       30.23R WCI -17
FLAG ISLAND    CLEAR      0 -13  55 NW13      30.24R WCI -18
INTL FALLS     CLEAR     -2 -15  54 W7        30.23R WCI -15
6HR MIN TEMP:  -3; 6HR MAX TEMP:   2;

WASKISH        CLEAR     -2 -11  65 W7        30.27R WCI -16
BIG FORK       CLEAR      0  -9  65 W6        30.23R WCI -12
LONGVILLE      CLEAR     -2 -13  60 NW6       30.26R WCI -14
GRAND RAPIDS   PTCLDY     0 -15  50 W12       30.22R WCI -18
CRANE LAKE     CLEAR     -2 -17  50 CALM      30.23R
ORR            CLEAR      0 -17  46 NW6       30.17R WCI -12
COOK           CLEAR      0 -15  50 W6        30.20R WCI -12
WALKER         CLOUDY    -3 -14  61 NW8       30.26R WCI -18
$$
MNZ012-019>021-037-050100-
   Northeast Minnesota

CITY           SKY/WX    TMP DP  RH WIND       PRES   REMARKS
DULUTH         CLEAR      2 -15  45 NW14G21   30.17R WCI -16
6HR MIN TEMP:   1; 6HR MAX TEMP:   3;

ELY            CLEAR      0 -15  50 NW6       30.16R WCI -12
HIBBING        CLEAR      0 -15  49 NW14      30.20R WCI -19
EVELETH        CLEAR      1 -13  51 W6        30.20R WCI -10
DULUTH HARBOR  CLEAR      3 -11  51 W12       30.28R WCI -13
TWO HARBORS    CLEAR      3 -11  51 W5        30.18R WCI  -6
SILVER BAY     CLEAR      3 -15  43 W6        30.17R WCI  -8
GRAND MARAIS     N/A      3 -11  52 VRB3      30.21R
G MARAIS ARPRT CLEAR     -6 -17  59 W6        30.06R WCI -18
$$
MNZ029>031-032-039>041-046>048-054>057-064-050100-
   West Central Minnesota

CITY           SKY/WX    TMP DP  RH WIND       PRES   REMARKS
FERGUS FALLS   CLEAR      1  -9  60 NW15      30.38R WCI -18
WHEATON        CLEAR      0  -9  65 NW10      30.39R WCI -17
MORRIS         CLEAR      1  -9  60 NW15      30.34R WCI -18
ALEXANDRIA     CLEAR     -2 -11  65 NW12      30.29R WCI -20
ELBOW LAKE     FAIR       0  -6  77 NW12      30.32S WCI -18
WADENA         PTCLDY     0  -9  65 NW10      30.27S HAZE    WCI -17
GLENWOOD       CLEAR      0  -8  71 NW9       30.31R WCI -16
APPLETON       PTCLDY     3  -8  60 NW10      30.37S WCI -12
BENSON         PTCLDY     0  -8  71 N10       30.35R WCI -17
ORTONVILLE       N/A      1  -8  66 NW8       30.37R WCI -12
MADISON        CLEAR      3  -8  60 NW14      30.38R WCI -15
WILLMAR        FAIR       3  -6  66 NW15      30.34R HAZE    WCI -15
$$
MNZ033>034-036-042>043-049>051-058-059-050100-
   Central Minnesota

CITY           SKY/WX    TMP DP  RH WIND       PRES   REMARKS
ST CLOUD       CLEAR      1 -12  54 NW12      30.30R WCI -16
6HR MIN TEMP:   1; 6HR MAX TEMP:   6;

SAUK CENTRE    FAIR       0 -11  60 NW10      30.31R WCI -17
PAYNESVILLE    CLEAR     -2 -13  58 W10G16    30.32R WCI -19
AITKIN         CLEAR      3 -17  39 W6        30.24R WCI  -8
PINE RIVER     CLEAR      0 -11  60 NW6       30.29R WCI -12
BRAINERD       PTCLDY     0 -14  51 NW13      30.27R WCI -18
STAPLES        CLEAR     -2 -11  65 NW8       30.28R WCI -17
LONG PRAIRIE   FAIR       0 -13  55 W13G18    30.29R WCI -18
LITTLE FALLS   CLEAR      1 -13  51 W8        30.30R WCI -12
LITCHFIELD     CLEAR      1  -8  66 CALM      30.32R
BUFFALO        CLEAR      3 -10  53 W12       30.32R WCI -13
MAPLE LAKE     CLEAR      4  -9  55 W14       30.32R WCI -14
$$
MNZ037-044-045-052-053-050100-
   East Central Minnesota

CITY           SKY/WX    TMP DP  RH WIND       PRES   REMARKS
PRINCETON      CLEAR      3 -11  51 W12       30.29R WCI -13
MORA           CLEAR      3 -13  47 NW9       30.29R WCI -11
CAMBRIDGE      CLEAR      5  -9  51 W12       30.28R WCI -11
RUSH CITY      PTCLDY     4 -11  49 NW6       30.28R WCI  -7
MOOSE LAKE     CLEAR      3 -15  43 CALM      30.23R
HINCKLEY       FAIR       5 -13  43 W8        30.26R WCI  -8
CLOQUET        CLEAR      1 -17  42 NW12G17   30.20R WCI -15
MCGREGOR       CLEAR      1 -13  51 NW9       30.25R WCI -14
$$
MNZ071>073-080-081-089-090-097-098-050100-
   Southwest Minnesota

CITY           SKY/WX    TMP DP  RH WIND       PRES   REMARKS
MONTEVIDEO     MOCLDY     1  -6  71 N14       30.37R WCI -17
GRANITE FALLS  MOCLDY     3  -5  70 NW15      30.38R HAZE    WCI -16
CANBY          PTCLDY     2  -7  65 NW14G20   30.38R WCI -16
MARSHALL       MOCLDY     3  -6  66 N20G29    30.36R WCI -18
REDWOOD FALLS  CLOUDY     4  -5  66 NW14G21   30.35R WCI -14
OLIVIA         CLEAR      1  -8  66 NW15      30.34R WCI -18
PIPESTONE      CLEAR      3  -8  60 NW15      30.30R WCI -15
WINDOM         CLEAR      3  -6  66 NW21      30.30R WCI -18
WORTHINGTON    PTCLDY     3  -8  60 NW20      30.32R WCI -18
JACKSON        MOCLDY     9  -4  56 NW22G29   30.29R WCI -11
TRACY          PTCLDY     4  -5  64 NW17G23   30.33S WCI -15
SLAYTON        CLEAR      2 -10  54 NW17      30.31R WCI -17
$$
MNZ065>067-074>077-082>085-091>093-050100-
   South Central Minnesota

CITY           SKY/WX    TMP DP  RH WIND       PRES   REMARKS
MANKATO        MOCLDY     5  -4  66 NW17G23   30.30S WCI -14
NEW ULM        PTCLDY     5  -6  61 NW20      30.32R WCI -15
ST JAMES       PTCLDY     7  -2  66 NW16G24   30.34R WCI -11
FAIRMONT       PTCLDY     7  -2  66 NW17G24   30.29R WCI -12
GLENCOE        PTCLDY     4  -4  69 NW13      30.31R WCI -13
FARIBAULT      PTCLDY     7  -2  66 W13G21    30.28S HAZE    WCI  -9
OWATONNA       PTCLDY     7  -2  66 W14       30.27R WCI -10
WASECA         PTCLDY     7  -2  66 NW16      30.30R WCI -11
ALBERT LEA     MOCLDY     9   0  66 NW9       30.27R WCI  -5
$$
MNZ078>079-086>088-094>096-050100-
   Southeast Minnesota

CITY           SKY/WX    TMP DP  RH WIND       PRES   REMARKS
ROCHESTER      PTCLDY     5  -4  66 NW20      30.24R WCI -15
6HR MIN TEMP:   6; 6HR MAX TEMP:  11; 6HR PCP: TRACE;

RED WING       CLEAR      9 -11  40 NW10G17   30.28R WCI  -6
STANTON        CLEAR      7  -5  56 NW16      30.27R WCI -11
DODGE CENTER   PTCLDY     7  -6  56 NW16G22   30.24R WCI -11
WINONA         CLEAR     12   0  57 NW8G18    30.28R WCI   1
AUSTIN         CLEAR      7  -4  61 NW13      30.26R WCI  -9
PRESTON        CLEAR      6  -3  65 NW13      30.24R WCI -10
$$
ABBREVIATIONS USED IN REMARKS
   TC - TEMPERATURES IN CELSIUS
  WCI - WIND CHILL INDEX
   HX - HEAT INDEX
  VSB - VISIBILITY
$$



USA.gov is the U.S. government's official web portal to all federal, state and local government web resources and services.